User: anonymous   Login
Location: Unspecified
(0.0000°N, 0.0000°E)
Time: 13:28:59
(UTC+02:00)
Language:

Delta 168 - Orbit

View from above orbital plane
View from above orbital plane
View from above satellite
View from above satellite

Ground track
Ground track

The orbit data is extracted from the following two-line orbital elements,

1 14051U 83041B   18115.73541634 +.00001900 +00000-0 +15947-3 0  9995
2 14051 025.3380 224.7762 1094584 227.9634 122.2481 13.09045468619420
Epoch (UTC): 25 April 2018 17:38:59
Eccentricity: 0.1094584
inclination: 25.3380°
perigee height: 394 km
apogee height: 2059 km
right ascension of ascending node: 224.7762°
argument of perigee: 227.9634°
revolutions per day: 13.09045468
mean anomaly at epoch: 122.2481°
orbit number at epoch: 61942

The dashed part of the orbit path shows where the satellite is in the earth's shadow,  

DLR